Council Bluffs, IA

10:19 AM CST on January 17, 2018 (GMT -0600)
Council Bluffs Municipal

Weather History for KCBF - January, 2014

Change the Weather History Date:

Saturday, January 4, 2014

  Actual Average Record
Temperature  
Mean Temperature 24 °F -  
Max Temperature 37 °F 33 °F 51 °F (2006)
Min Temperature 10 °F 17 °F -9 °F (1999)
Degree Days  
Heating Degree Days 42    
Moisture  
Dew Point 15 °F    
Average Humidity 77    
Maximum Humidity 93    
Minimum Humidity 68    
Precipitation  
Precipitation 0.00 in - - ()
Sea Level Pressure  
Sea Level Pressure 29.93 in    
Wind  
Wind Speed 14 mph (NNW)    
Max Wind Speed 25 mph    
Max Gust Speed 38 mph    
Visibility 10 miles    
Events Snow    
Averages and records for this station are not official NWS values.
T = Trace of Precipitation, MM = Missing Value Source: NWS Daily Summary

Daily Weather History Graph

Daily Weather History Graph

Search for Another Location

Airport or City:

Trip Planner

Search our weather history database for the weather conditions in past years. The results will help you decide how hot, cold, wet, or windy it might be!

Date:

Astronomy

Jan. 04, 2014 Rise Set
Actual Time 7:48 AM CST 5:07 PM CST
Civil Twilight 7:17 AM CST 5:38 PM CST
Nautical Twilight 6:43 AM CST 6:13 PM CST
Astronomical Twilight 6:09 AM CST 6:46 PM CST
Moon 9:52 AM CST (1/4) 9:31 PM CST (1/4)
Length of Visible Light 10h 20m
Length of Day
9h 18m
Waxing Crescent, 15% of the Moon is Illuminated
Jan 4
Waxing Crescent
Jan 7
First Quarter
Jan 15
Full
Jan 23
Last Quarter
Jan 30
New

Hourly Weather History & Observations

Time (CST) Temp. Windchill Dew Point Humidity Pressure Visibility Wind Dir Wind Speed Gust Speed Precip Events Conditions
12:15 AM 32.0 °F 21.6 °F 26.6 °F 80% 29.60 in 10.0 mi SSW 15.0 mph 20.7 mph N/A   Clear
12:35 AM 33.8 °F 24.8 °F 26.6 °F 75% 29.61 in 10.0 mi SW 12.7 mph - N/A   Clear
12:55 AM 32.0 °F 23.6 °F 26.6 °F 80% 29.63 in 10.0 mi SW 10.4 mph - N/A   Clear
1:15 AM 32.0 °F 23.0 °F 26.6 °F 80% 29.63 in 10.0 mi SW 11.5 mph - N/A   Clear
1:35 AM 32.0 °F 22.5 °F 26.6 °F 80% 29.63 in 10.0 mi SW 12.7 mph - N/A   Mostly Cloudy
1:55 AM 32.0 °F 24.2 °F 26.6 °F 80% 29.64 in 10.0 mi SW 9.2 mph - N/A   Overcast
2:15 AM 33.8 °F 25.3 °F 28.4 °F 81% 29.64 in 10.0 mi SW 11.5 mph - N/A   Overcast
2:35 AM 33.8 °F 27.0 °F 28.4 °F 81% 29.64 in 10.0 mi SW 8.1 mph - N/A   Overcast
2:55 AM 32.0 °F 23.6 °F 26.6 °F 80% 29.64 in 10.0 mi SSW 10.4 mph - N/A   Mostly Cloudy
3:15 AM 32.0 °F 23.6 °F 28.4 °F 87% 29.66 in 10.0 mi SW 10.4 mph - N/A   Scattered Clouds
3:35 AM 33.8 °F 25.8 °F 28.4 °F 81% 29.65 in 10.0 mi SSW 10.4 mph - N/A   Mostly Cloudy
3:55 AM 33.8 °F 25.8 °F 28.4 °F 81% 29.66 in 10.0 mi SW 10.4 mph - N/A   Scattered Clouds
4:15 AM 33.8 °F 26.4 °F 28.4 °F 81% 29.67 in 10.0 mi SW 9.2 mph - N/A   Partly Cloudy
4:35 AM 33.8 °F 27.0 °F 28.4 °F 81% 29.70 in 10.0 mi WSW 8.1 mph - N/A   Mostly Cloudy
4:55 AM 32.0 °F 26.4 °F 28.4 °F 87% 29.71 in 10.0 mi WSW 5.8 mph - N/A   Mostly Cloudy
5:15 AM 32.0 °F 26.4 °F 28.4 °F 87% 29.71 in 10.0 mi SW 5.8 mph - N/A   Partly Cloudy
5:35 AM 32.0 °F 24.8 °F 30.2 °F 93% 29.73 in 10.0 mi West 8.1 mph - N/A   Partly Cloudy
5:55 AM 33.8 °F 27.0 °F 30.2 °F 87% 29.73 in 10.0 mi NW 8.1 mph - N/A   Scattered Clouds
6:15 AM 37.4 °F 28.9 °F 32.0 °F 81% 29.74 in 10.0 mi NNW 13.8 mph 24.2 mph N/A   Overcast
6:35 AM 33.8 °F 21.0 °F 30.2 °F 87% 29.77 in 10.0 mi NNW 25.3 mph 38.0 mph N/A   Overcast
6:55 AM 30.2 °F 16.5 °F 28.4 °F 93% 29.80 in 10.0 mi NNW 24.2 mph 36.8 mph N/A Snow Light Snow
7:15 AM 28.4 °F 14.7 °F 23.0 °F 80% 29.81 in 10.0 mi NNW 21.9 mph 32.2 mph N/A   Overcast
7:35 AM 26.6 °F 13.8 °F 21.2 °F 80% 29.83 in 10.0 mi NNW 17.3 mph 27.6 mph N/A   Overcast
7:55 AM 24.8 °F 11.5 °F 19.4 °F 80% 29.86 in 10.0 mi NNW 17.3 mph 29.9 mph N/A Snow Light Snow
8:15 AM 21.2 °F 6.0 °F 15.8 °F 80% 29.88 in 10.0 mi NNW 19.6 mph 35.7 mph N/A Snow Light Snow
8:35 AM 19.4 °F 4.5 °F 14.0 °F 80% 29.89 in 10.0 mi NNW 17.3 mph 26.5 mph N/A   Scattered Clouds
8:55 AM 19.4 °F 4.1 °F 12.2 °F 74% 29.89 in 10.0 mi NNW 18.4 mph 26.5 mph N/A Snow Light Snow
9:15 AM 17.6 °F 3.7 °F 12.2 °F 79% 29.92 in 10.0 mi North 13.8 mph 21.9 mph N/A   Partly Cloudy
9:35 AM 17.6 °F 2.2 °F 12.2 °F 79% 29.92 in 10.0 mi NNW 17.3 mph - N/A Snow Light Snow
9:55 AM 19.4 °F 3.6 °F 12.2 °F 74% 29.94 in 10.0 mi North 19.6 mph 26.5 mph N/A Snow Light Snow
10:15 AM 17.6 °F 3.7 °F 12.2 °F 79% 29.95 in 10.0 mi North 13.8 mph 23.0 mph N/A Snow Light Snow
10:35 AM 17.6 °F 3.2 °F 12.2 °F 79% 29.96 in 10.0 mi NNW 15.0 mph 23.0 mph N/A   Mostly Cloudy
10:55 AM 17.6 °F 4.3 °F 12.2 °F 79% 29.97 in 10.0 mi NNW 12.7 mph 21.9 mph N/A Snow Light Snow
11:15 AM 17.6 °F 3.7 °F 10.4 °F 73% 29.98 in 10.0 mi NNW 13.8 mph 26.5 mph N/A   Overcast
11:35 AM 15.8 °F 0.3 °F 10.4 °F 79% 29.98 in 10.0 mi NNW 16.1 mph 24.2 mph N/A Snow Light Snow
11:55 AM 15.8 °F 1.4 °F 10.4 °F 79% 29.99 in 10.0 mi NNW 13.8 mph 26.5 mph N/A Snow Light Snow
12:15 PM 15.8 °F -1.9 °F 8.6 °F 73% 29.98 in 10.0 mi NNW 21.9 mph - N/A Snow Light Snow
12:35 PM 15.8 °F -1.9 °F 8.6 °F 73% 29.97 in 10.0 mi NNW 21.9 mph - N/A   Mostly Cloudy
12:55 PM 15.8 °F -2.7 °F 6.8 °F 68% 29.97 in 10.0 mi NNW 24.2 mph 31.1 mph N/A Snow Light Snow
1:15 PM 15.8 °F -0.2 °F 8.6 °F 73% 29.96 in 10.0 mi NNW 17.3 mph 26.5 mph N/A   Clear
1:35 PM 15.8 °F -2.3 °F 8.6 °F 73% 29.95 in 10.0 mi NNW 23.0 mph 29.9 mph N/A   Clear
1:55 PM 15.8 °F -1.5 °F 6.8 °F 68% 29.96 in 10.0 mi North 20.7 mph 29.9 mph N/A Snow Light Snow
2:15 PM 15.8 °F -0.6 °F 6.8 °F 68% 29.99 in 10.0 mi NNW 18.4 mph 28.8 mph N/A   Clear
2:35 PM 15.8 °F -1.1 °F 6.8 °F 68% 30.01 in 10.0 mi NNW 19.6 mph - N/A   Clear
2:55 PM 15.8 °F -0.2 °F 6.8 °F 68% 30.00 in 10.0 mi NNW 17.3 mph 25.3 mph N/A Snow Light Snow
3:15 PM 15.8 °F -1.5 °F 8.6 °F 73% 30.01 in 10.0 mi North 20.7 mph - N/A Snow Light Snow
3:35 PM 15.8 °F 0.3 °F 6.8 °F 68% 30.02 in 10.0 mi North 16.1 mph 25.3 mph N/A Snow Light Snow
3:55 PM 15.8 °F 2.1 °F 6.8 °F 68% 30.03 in 10.0 mi North 12.7 mph - N/A   Clear
4:15 PM 15.8 °F 0.3 °F 6.8 °F 68% 30.04 in 10.0 mi North 16.1 mph 29.9 mph N/A Snow Light Snow
4:35 PM 15.8 °F 0.3 °F 6.8 °F 68% 30.05 in 10.0 mi North 16.1 mph 26.5 mph N/A Snow Light Snow
4:55 PM 15.8 °F 1.4 °F 6.8 °F 68% 30.05 in 10.0 mi North 13.8 mph 20.7 mph N/A Snow Light Snow
5:15 PM 15.8 °F 1.4 °F 6.8 °F 68% 30.06 in 10.0 mi North 13.8 mph - N/A Snow Light Snow
5:35 PM 15.8 °F 0.3 °F 6.8 °F 68% 30.07 in 10.0 mi North 16.1 mph - N/A   Overcast
5:55 PM 15.8 °F -1.5 °F 6.8 °F 68% 30.08 in 10.0 mi North 20.7 mph 27.6 mph N/A Snow Light Snow
6:15 PM 15.8 °F 0.3 °F 8.6 °F 73% 30.08 in 10.0 mi North 16.1 mph - N/A   Overcast
6:35 PM 15.8 °F 0.9 °F 8.6 °F 73% 30.08 in 10.0 mi North 15.0 mph 20.7 mph N/A   Overcast
6:55 PM 15.8 °F 0.3 °F 8.6 °F 73% 30.08 in 10.0 mi North 16.1 mph 23.0 mph N/A Snow Light Snow
7:15 PM 15.8 °F 0.9 °F 8.6 °F 73% 30.10 in 10.0 mi North 15.0 mph 24.2 mph N/A Snow Light Snow
7:35 PM 15.8 °F 2.1 °F 8.6 °F 73% 30.11 in 10.0 mi North 12.7 mph 25.3 mph N/A Snow Light Snow
7:55 PM 15.8 °F 1.4 °F 8.6 °F 73% 30.13 in 10.0 mi North 13.8 mph 19.6 mph N/A   Overcast
8:15 PM 15.8 °F 2.7 °F 8.6 °F 73% 30.14 in 10.0 mi North 11.5 mph 19.6 mph N/A   Overcast
8:35 PM 15.8 °F 3.4 °F 10.4 °F 79% 30.15 in 10.0 mi North 10.4 mph 17.3 mph N/A Snow Light Snow
8:55 PM 14.0 °F -2.5 °F 8.6 °F 79% 30.16 in 10.0 mi North 17.3 mph 28.8 mph N/A   Overcast
9:15 PM 14.0 °F 2.0 °F 8.6 °F 79% 30.16 in 10.0 mi North 9.2 mph 20.7 mph N/A   Overcast
9:35 PM 14.0 °F -0.8 °F 8.6 °F 79% 30.16 in 10.0 mi North 13.8 mph - N/A   Overcast
9:55 PM 14.0 °F -2.0 °F 6.8 °F 73% 30.17 in 10.0 mi North 16.1 mph - N/A Snow Light Snow
10:15 PM 12.2 °F -3.7 °F 6.8 °F 79% 30.18 in 10.0 mi North 15.0 mph - N/A   Overcast
10:35 PM 12.2 °F -2.5 °F 5.0 °F 73% 30.19 in 10.0 mi North 12.7 mph 21.9 mph N/A   Overcast
10:55 PM 12.2 °F -5.3 °F 5.0 °F 73% 30.18 in 10.0 mi North 18.4 mph - N/A Snow Light Snow
11:15 PM 10.4 °F -6.0 °F 5.0 °F 79% 30.19 in 10.0 mi North 15.0 mph 24.2 mph N/A Snow Light Snow
11:35 PM 10.4 °F -7.2 °F 5.0 °F 79% 30.19 in 10.0 mi North 17.3 mph 26.5 mph N/A Snow Light Snow
11:55 PM 10.4 °F -5.4 °F 5.0 °F 79% 30.19 in 10.0 mi North 13.8 mph - N/A   Overcast